Вернуться в каталог

FENGYUN 1C DEB

АктивенSSO
NORAD 36278·DEBRIS·🇨🇳 China

Запущен May 10, 1999 с Taiyuan Satellite Launch Center

Loading…

Ближайшие Пролёты (ближайшие 24 часа)

TLE

УстаревающийSource: Space-Track

Эпоха: Sep 6, 2026, 12:31 UTC

1 36278U 99025DXF 26249.52184417  .00000278  00000-0  15677-3 0  9992
2 36278  99.1280 180.0746 0059720 251.6539 107.8133 14.17766459972705

Отслеживайте FENGYUN 1C DEB в реальном времени с AllMySat

Download on the App Store